This is the latest recevied weather packets stored in our database for station/object DN9EL-10. If no packets are shown the sender has not sent any weather packets the latest 10 day(s).
| Time | Temp. | Humidity | Pressure | Rain* | Wind** | Luminosity | Snow |
|---|---|---|---|---|---|---|---|
| 1777256495 | 2.78° C | 54% | 968.7 hPa | - | - | - | - |
| 1777255595 | 3.33° C | 54% | 968.8 hPa | - | - | - | - |
| 1777254695 | 3.33° C | 54% | 968.8 hPa | - | - | - | - |
| 1777253795 | 3.89° C | 53% | 968.8 hPa | - | - | - | - |
| 1777252895 | 3.89° C | 53% | 968.9 hPa | - | - | - | - |
| 1777251995 | 4.44° C | 53% | 968.8 hPa | - | - | - | - |
| 1777251095 | 4.44° C | 53% | 968.9 hPa | - | - | - | - |
| 1777250195 | 4.44° C | 53% | 968.9 hPa | - | - | - | - |
| 1777249294 | 5° C | 52% | 968.9 hPa | - | - | - | - |
| 1777248394 | 5° C | 52% | 968.8 hPa | - | - | - | - |
| 1777247494 | 5.56° C | 52% | 969 hPa | - | - | - | - |
| 1777246594 | 5.56° C | 51% | 969.1 hPa | - | - | - | - |
| 1777245694 | 6.11° C | 52% | 969.2 hPa | - | - | - | - |
| 1777244794 | 6.67° C | 51% | 969.3 hPa | - | - | - | - |
| 1777243894 | 6.67° C | 51% | 969.3 hPa | - | - | - | - |
| 1777242994 | 7.22° C | 50% | 969.3 hPa | - | - | - | - |
| 1777242094 | 7.22° C | 50% | 969.2 hPa | - | - | - | - |
| 1777241193 | 7.78° C | 50% | 969.2 hPa | - | - | - | - |
| 1777240293 | 8.33° C | 50% | 969.2 hPa | - | - | - | - |
| 1777239393 | 8.33° C | 49% | 969.3 hPa | - | - | - | - |
| 1777238493 | 8.89° C | 49% | 969.3 hPa | - | - | - | - |
| 1777237593 | 9.44° C | 48% | 969.3 hPa | - | - | - | - |
| 1777236693 | 10° C | 48% | 969.3 hPa | - | - | - | - |
| 1777235793 | 10° C | 48% | 969.3 hPa | - | - | - | - |
| 1777234893 | 10.56° C | 47% | 969.3 hPa | - | - | - | - |
* Rain since midnight (hover to see other rain measurements)
** Current wind speed in m/s (hover to see current wind gust speed)